Weather History for Columbus, NE

Change the Weather History Date:

Thursday, December 6, 2012

  Actual Average Record
Temperature  
Mean Temperature 44 °F -  
Max Temperature 51 °F 35 °F 65 °F (1963)
Min Temperature 37 °F 17 °F -13 °F (2011)
Degree Days  
Heating Degree Days 21    
Moisture  
Dew Point 22 °F    
Average Humidity 40    
Maximum Humidity 60    
Minimum Humidity 30    
Precipitation  
Precipitation 0.00 in - - ()
Sea Level Pressure  
Sea Level Pressure 29.92 in    
Wind  
Wind Speed 12 mph (NNW)    
Max Wind Speed 23 mph    
Max Gust Speed 24 mph    
Visibility 10 miles    
Events      
Averages and records for this station are not official NWS values.
T = Trace of Precipitation, MM = Missing Value Source: NWS Daily Summary

Daily Weather History Graph

Daily Weather History Graph

Search for Another Location

Airport:

Trip Planner

Search our weather history database for the weather conditions in past years. The results will help you decide how hot, cold, wet, or windy it might be!

Date:

Astronomy

Dec. 06, 2012 Rise Set
Actual Time 7:41 AM CST 4:59 PM CST
Civil Twilight 7:10 AM CST 5:30 PM CST
Nautical Twilight 6:35 AM CST 6:05 PM CST
Astronomical Twilight 6:02 AM CST 6:38 PM CST
Moon No Moon Rise 12:30 PM CST (12/6)
Length of Visible Light 10h 20m
Length of Day
9h 17m
Waning Gibbous, 49% of the Moon is Illuminated
Dec 6
Waning Gibbous
Dec 13
New
Dec 19
First Quarter
Dec 28
Full
Jan 4
Last Quarter

Hourly Weather History & Observations

Time (CST) Temp. Windchill Dew Point Humidity Pressure Visibility Wind Dir Wind Speed Gust Speed Precip Events Conditions
12:15 AM 50.0 °F - 19.4 °F 30% 29.83 in 10.0 mi South 17.3 mph 24.2 mph N/A   Clear
12:35 AM 48.2 °F - 19.4 °F 32% 29.83 in 10.0 mi South 17.3 mph 23.0 mph N/A   Partly Cloudy
12:55 AM 48.2 °F - 19.4 °F 32% 29.83 in 10.0 mi South 18.4 mph 23.0 mph N/A   Clear
1:15 AM 48.2 °F - 19.4 °F 32% 29.83 in 10.0 mi SSW 10.4 mph 19.6 mph N/A   Clear
1:35 AM 48.2 °F - 19.4 °F 32% 29.83 in 10.0 mi SSW 15.0 mph 18.4 mph N/A   Clear
1:55 AM 48.2 °F - 19.4 °F 32% 29.83 in 10.0 mi SSW 15.0 mph 20.7 mph N/A   Clear
2:15 AM 48.2 °F - 19.4 °F 32% 29.83 in 10.0 mi SSW 15.0 mph 20.7 mph N/A   Clear
2:35 AM 48.2 °F - 19.4 °F 32% 29.83 in 10.0 mi SSW 12.7 mph 19.6 mph N/A   Clear
2:55 AM 48.2 °F - 19.4 °F 32% 29.83 in 10.0 mi SSW 8.1 mph - N/A   Clear
3:15 AM 48.2 °F - 19.4 °F 32% 29.84 in 10.0 mi SW 8.1 mph - N/A   Clear
3:35 AM 48.2 °F - 19.4 °F 32% 29.83 in 10.0 mi SW 10.4 mph - N/A   Clear
3:55 AM 46.4 °F 42.4 °F 19.4 °F 34% 29.84 in 10.0 mi SW 8.1 mph - N/A   Clear
4:15 AM 46.4 °F 42.4 °F 19.4 °F 34% 29.83 in 10.0 mi SW 8.1 mph - N/A   Scattered Clouds
4:35 AM 46.4 °F 41.9 °F 19.4 °F 34% 29.84 in 10.0 mi SW 9.2 mph - N/A   Scattered Clouds
4:55 AM 46.4 °F 42.9 °F 21.2 °F 37% 29.83 in 10.0 mi SW 6.9 mph - N/A   Scattered Clouds
5:15 AM 46.4 °F 43.5 °F 21.2 °F 37% 29.85 in 10.0 mi WSW 5.8 mph - N/A   Partly Cloudy
5:35 AM 46.4 °F 44.3 °F 21.2 °F 37% 29.85 in 10.0 mi WSW 4.6 mph - N/A   Scattered Clouds
5:55 AM 44.6 °F 41.4 °F 21.2 °F 39% 29.86 in 10.0 mi WSW 5.8 mph - N/A   Scattered Clouds
6:15 AM 44.6 °F 43.1 °F 21.2 °F 39% 29.86 in 10.0 mi West 3.5 mph - N/A   Mostly Cloudy
6:35 AM 44.6 °F 43.1 °F 21.2 °F 39% 29.87 in 10.0 mi West 3.5 mph - N/A   Scattered Clouds
6:55 AM 42.8 °F 40.1 °F 23.0 °F 46% 29.87 in 10.0 mi NW 4.6 mph - N/A   Mostly Cloudy
7:15 AM 44.6 °F 40.2 °F 24.8 °F 46% 29.89 in 10.0 mi NNW 8.1 mph - N/A   Scattered Clouds
7:35 AM 46.4 °F 41.5 °F 26.6 °F 46% 29.89 in 10.0 mi NNW 10.4 mph - N/A   Clear
7:55 AM 46.4 °F 40.7 °F 28.4 °F 50% 29.89 in 10.0 mi North 12.7 mph - N/A   Clear
8:15 AM 46.4 °F 41.5 °F 30.2 °F 53% 29.90 in 10.0 mi North 10.4 mph 16.1 mph N/A   Mostly Cloudy
8:35 AM 46.4 °F 41.5 °F 30.2 °F 53% 29.90 in 10.0 mi North 10.4 mph - N/A   Overcast
8:55 AM 46.4 °F 39.5 °F 28.4 °F 50% 29.91 in 10.0 mi North 17.3 mph - N/A   Overcast
9:15 AM 46.4 °F 39.8 °F 26.6 °F 46% 29.92 in 10.0 mi North 16.1 mph 19.6 mph N/A   Overcast
9:35 AM 48.2 °F - 26.6 °F 43% 29.93 in 10.0 mi North 18.4 mph 23.0 mph N/A   Overcast
9:55 AM 48.2 °F - 26.6 °F 43% 29.94 in 10.0 mi North 15.0 mph - N/A   Overcast
10:15 AM 48.2 °F - 24.8 °F 40% 29.95 in 10.0 mi North 18.4 mph - N/A   Mostly Cloudy
10:35 AM 48.2 °F - 24.8 °F 40% 29.96 in 10.0 mi North 20.7 mph 24.2 mph N/A   Overcast
10:55 AM 48.2 °F - 23.0 °F 37% 29.96 in 10.0 mi North 23.0 mph - N/A   Overcast
11:15 AM 48.2 °F - 23.0 °F 37% 29.97 in 10.0 mi North 16.1 mph 23.0 mph N/A   Overcast
11:35 AM 48.2 °F - 23.0 °F 37% 29.97 in 10.0 mi North 13.8 mph - N/A   Overcast
11:55 AM 48.2 °F - 23.0 °F 37% 29.96 in 10.0 mi North 17.3 mph - N/A   Overcast
12:15 PM 50.0 °F - 24.8 °F 37% 29.95 in 10.0 mi North 13.8 mph - N/A   Overcast
12:35 PM 50.0 °F - 21.2 °F 32% 29.95 in 10.0 mi North 15.0 mph - N/A   Overcast
12:55 PM 51.8 °F - 23.0 °F 33% 29.94 in 10.0 mi North 16.1 mph 19.6 mph N/A   Mostly Cloudy
1:15 PM 51.8 °F - 23.0 °F 33% 29.94 in 10.0 mi North 10.4 mph - N/A   Overcast
1:35 PM 51.8 °F - 21.2 °F 30% 29.94 in 10.0 mi North 13.8 mph 20.7 mph N/A   Overcast
1:55 PM 51.8 °F - 23.0 °F 33% 29.94 in 10.0 mi NNW 15.0 mph 19.6 mph N/A   Overcast
2:15 PM 50.0 °F - 21.2 °F 32% 29.94 in 10.0 mi NNW 13.8 mph 20.7 mph N/A   Overcast
2:35 PM 50.0 °F - 21.2 °F 32% 29.95 in 10.0 mi North 11.5 mph - N/A   Overcast
2:55 PM 48.2 °F - 19.4 °F 32% 29.95 in 10.0 mi North 12.7 mph - N/A   Overcast
3:15 PM 48.2 °F - 19.4 °F 32% 29.96 in 10.0 mi North 11.5 mph 20.7 mph N/A   Overcast
3:35 PM 48.2 °F - 19.4 °F 32% 29.96 in 10.0 mi NNW 16.1 mph 20.7 mph N/A   Overcast
3:55 PM 48.2 °F - 19.4 °F 32% 29.96 in 10.0 mi North 11.5 mph - N/A   Overcast
4:15 PM 46.4 °F 41.1 °F 19.4 °F 34% 29.96 in 10.0 mi North 11.5 mph - N/A   Overcast
4:35 PM 46.4 °F 41.1 °F 19.4 °F 34% 29.96 in 10.0 mi North 11.5 mph - N/A   Overcast
4:55 PM 46.4 °F 40.1 °F 19.4 °F 34% 29.96 in 10.0 mi North 15.0 mph - N/A   Overcast
5:15 PM 44.6 °F 38.4 °F 19.4 °F 37% 29.96 in 10.0 mi North 12.7 mph 17.3 mph N/A   Overcast
5:35 PM 44.6 °F 38.4 °F 19.4 °F 37% 29.96 in 10.0 mi North 12.7 mph - N/A   Overcast
5:55 PM 42.8 °F 37.0 °F 19.4 °F 39% 29.96 in 10.0 mi North 10.4 mph - N/A   Overcast
6:15 PM 42.8 °F 37.5 °F 21.2 °F 42% 29.97 in 10.0 mi North 9.2 mph - N/A   Overcast
6:35 PM 42.8 °F 38.6 °F 21.2 °F 42% 29.97 in 10.0 mi North 6.9 mph - N/A   Overcast
7:15 PM 41.0 °F 36.4 °F 21.2 °F 45% 29.98 in 10.0 mi NE 6.9 mph - N/A   Overcast
7:35 PM 42.8 °F 41.1 °F 21.2 °F 42% 29.99 in 10.0 mi North 3.5 mph - N/A   Overcast
7:55 PM 41.0 °F 39.0 °F 21.2 °F 45% 30.00 in 10.0 mi NNE 3.5 mph - N/A   Overcast
8:35 PM 39.2 °F 35.0 °F 23.0 °F 52% 30.00 in 10.0 mi North 5.8 mph - N/A   Overcast
8:55 PM 39.2 °F 35.0 °F 23.0 °F 52% 30.00 in 10.0 mi NNE 5.8 mph - N/A   Overcast
9:15 PM 39.2 °F 35.9 °F 23.0 °F 52% 30.01 in 10.0 mi North 4.6 mph - N/A   Overcast
9:35 PM 39.2 °F 37.0 °F 23.0 °F 52% 30.01 in 10.0 mi North 3.5 mph - N/A   Overcast
9:55 PM 39.2 °F 35.9 °F 23.0 °F 52% 30.01 in 10.0 mi North 4.6 mph - N/A   Overcast
10:15 PM 39.2 °F - 23.0 °F 52% 30.01 in 10.0 mi Calm Calm - N/A   Overcast
10:35 PM 39.2 °F - 23.0 °F 52% 30.01 in 10.0 mi Calm Calm - N/A   Overcast
10:55 PM 39.2 °F 37.0 °F 23.0 °F 52% 30.01 in 10.0 mi NNW 3.5 mph - N/A   Overcast
11:15 PM 37.4 °F 34.9 °F 24.8 °F 60% 30.01 in 10.0 mi NW 3.5 mph - N/A   Overcast
11:35 PM 37.4 °F 34.9 °F 24.8 °F 60% 30.02 in 10.0 mi WNW 3.5 mph - N/A   Overcast
11:55 PM 37.4 °F 34.9 °F 24.8 °F 60% 30.02 in 10.0 mi WNW 3.5 mph - N/A   Overcast